Location: *
(45.9500°N, 9.0833°E)
Time: 10:08:55
(UTC+00:00)

Vanguard 2 Rocket - Visible Passes

Search period start: 15 June 2021 00:00
Search period end: 25 June 2021 00:00
Orbit: 554 x 3325 km, 32.9° (Epoch: 14 June)

Date Brightness Start Highest point End Pass type
(mag) Time Alt. Az. Time Alt. Az. Time Alt. Az.
15 Jun 8.9 01:05:20 10° WSW 01:09:57 19° SW 01:09:57 19° SW visible
15 Jun 9.5 19:28:23 10° SW 19:44:26 37° SSE 19:55:24 10° ESE visible
15 Jun 8.8 21:44:52 10° WSW 21:59:19 43° S 22:07:30 12° ESE visible
16 Jun 8.4 00:02:55 10° W 00:12:36 29° SSW 00:13:15 29° SSW visible
16 Jun 9.1 20:42:39 10° WSW 20:58:45 45° S 21:08:53 10° ESE visible
16 Jun 8.6 23:00:30 10° WSW 23:12:53 38° SSW 23:16:30 29° SSE visible
17 Jun 9.3 01:19:54 10° WSW 01:22:15 13° WSW 01:22:15 13° WSW visible
17 Jun 9.4 19:40:41 10° SW 19:57:51 44° S 20:09:24 10° ESE visible
17 Jun 8.8 21:58:02 10° WSW 22:12:46 44° S 22:19:45 19° SE visible
18 Jun 8.8 00:16:46 10° W 00:25:30 24° SW 00:25:30 24° SW visible
18 Jun 9.1 20:55:36 10° WSW 21:12:13 47° S 21:22:38 10° ESE visible
18 Jun 8.6 23:14:02 10° W 23:26:09 34° SSW 23:28:43 30° S visible
19 Jun 9.4 19:53:23 10° WSW 20:11:15 48° S 20:23:13 10° ESE visible
19 Jun 8.9 22:11:22 10° W 22:26:06 42° SSW 22:31:55 25° SSE visible
20 Jun 9.3 00:31:04 10° W 00:37:40 19° SW 00:37:40 19° SW visible
20 Jun 9.1 21:08:47 10° WSW 21:25:35 47° S 21:35:07 15° SE visible
20 Jun 8.9 23:27:48 10° W 23:39:10 28° SW 23:40:51 27° SSW visible
21 Jun 9.4 20:06:24 10° WSW 20:24:38 50° S 20:36:54 10° ESE visible
21 Jun 8.9 22:24:53 10° W 22:39:16 37° SSW 22:44:02 28° SSE visible
22 Jun 9.7 00:46:26 10° WSW 00:49:47 13° WSW 00:49:47 13° WSW visible
22 Jun 9.2 21:22:08 10° W 21:38:51 45° SSW 21:47:14 20° SE visible
22 Jun 9.3 23:41:57 10° W 23:51:59 22° SW 23:52:59 22° SW visible
23 Jun 9.4 20:19:37 10° WSW 20:37:57 50° S 20:50:24 10° ESE visible
23 Jun 9.1 22:38:35 10° W 22:52:13 32° SSW 22:56:09 27° S visible
24 Jun 9.2 21:35:38 10° W 21:51:57 40° SSW 21:59:20 23° SSE visible
